Time,TemperatureF,DewpointF,PressureIn,WindDirection,WindDirectionDegrees,WindSpeedMPH,WindSpeedGustMPH,Humidity,HourlyPrecipIn,Conditions,Clouds,dailyrainin,SoftwareType,DateUTC
2013-01-04 00:05:00,31.1,29.8,30.36,WNW,290,0.0,0.0,95,0.00,,,0.00,Wunderground v.1.15,2013-01-04 05:05:00,
2013-01-04 00:10:00,31.4,30.4,30.36,WNW,290,0.0,0.0,96,0.00,,,0.00,Wunderground v.1.15,2013-01-04 05:10:00,
2013-01-04 00:20:00,32.4,31.4,30.36,WNW,290,0.0,0.0,96,0.00,,,0.00,Wunderground v.1.15,2013-01-04 05:20:00,
2013-01-04 00:25:00,32.6,31.6,30.36,WNW,290,0.0,0.0,96,0.00,,,0.00,Wunderground v.1.15,2013-01-04 05:25:00,
2013-01-04 00:30:00,32.6,31.6,30.36,WNW,290,0.0,0.0,96,0.00,,,0.00,Wunderground v.1.15,2013-01-04 05:30:00,
2013-01-04 00:35:00,33.0,32.0,30.36,WNW,290,0.0,0.0,96,0.00,,,0.00,Wunderground v.1.15,2013-01-04 05:35:00,
2013-01-04 00:40:00,33.2,32.2,30.36,WNW,290,0.0,1.0,96,0.00,,,0.00,Wunderground v.1.15,2013-01-04 05:40:00,
2013-01-04 00:45:00,32.9,31.9,30.36,WNW,290,0.0,1.0,96,0.00,,,0.00,Wunderground v.1.15,2013-01-04 05:45:00,
2013-01-04 00:55:00,32.3,31.3,30.36,WNW,290,0.0,0.0,96,0.00,,,0.00,Wunderground v.1.15,2013-01-04 05:55:00,
2013-01-04 01:05:00,32.0,31.0,30.36,WNW,290,0.0,0.0,96,0.00,,,0.00,Wunderground v.1.15,2013-01-04 06:05:00,
2013-01-04 01:15:00,31.7,30.7,30.36,WNW,290,0.0,0.0,96,0.00,,,0.00,Wunderground v.1.15,2013-01-04 06:15:00,
2013-01-04 01:25:00,31.4,30.4,30.36,WNW,290,0.0,0.0,96,0.00,,,0.00,Wunderground v.1.15,2013-01-04 06:25:00,
2013-01-04 01:30:00,31.3,30.3,30.36,WNW,290,0.0,0.0,96,0.00,,,0.00,Wunderground v.1.15,2013-01-04 06:30:00,
2013-01-04 01:35:00,31.3,30.3,30.36,WNW,290,0.0,0.0,96,0.00,,,0.00,Wunderground v.1.15,2013-01-04 06:35:00,
2013-01-04 01:45:00,31.1,30.1,30.36,WNW,290,0.0,0.0,96,0.00,,,0.00,Wunderground v.1.15,2013-01-04 06:45:00,
2013-01-04 01:50:00,31.0,30.0,30.36,WNW,290,0.0,0.0,96,0.00,,,0.00,Wunderground v.1.15,2013-01-04 06:50:00,
2013-01-04 02:00:00,30.7,29.7,30.36,WNW,290,0.0,0.0,96,0.00,,,0.00,Wunderground v.1.15,2013-01-04 07:00:00,
2013-01-04 02:10:00,30.6,29.6,30.36,WNW,290,0.0,0.0,96,0.00,,,0.00,Wunderground v.1.15,2013-01-04 07:10:00,
2013-01-04 02:15:00,30.6,29.6,30.36,WNW,290,0.0,0.0,96,0.00,,,0.00,Wunderground v.1.15,2013-01-04 07:15:00,
2013-01-04 02:25:00,31.0,30.0,30.36,WNW,290,0.0,0.0,96,0.00,,,0.00,Wunderground v.1.15,2013-01-04 07:25:00,
2013-01-04 02:30:00,31.1,30.1,30.35,WNW,290,0.0,0.0,96,0.00,,,0.00,Wunderground v.1.15,2013-01-04 07:30:00,
2013-01-04 02:40:00,31.4,30.4,30.36,WNW,290,0.0,0.0,96,0.00,,,0.00,Wunderground v.1.15,2013-01-04 07:40:00,
2013-01-04 02:50:00,31.8,30.8,30.37,WNW,290,0.0,0.0,96,0.00,,,0.00,Wunderground v.1.15,2013-01-04 07:50:00,
2013-01-04 03:00:00,32.1,31.1,30.37,WNW,290,0.0,0.0,96,0.00,,,0.00,Wunderground v.1.15,2013-01-04 08:00:00,
2013-01-04 03:10:00,32.5,31.5,30.37,WNW,290,0.0,0.0,96,0.00,,,0.00,Wunderground v.1.15,2013-01-04 08:10:00,
2013-01-04 03:20:00,32.8,31.8,30.37,WNW,287,0.0,1.0,96,0.00,,,0.00,Wunderground v.1.15,2013-01-04 08:20:00,
2013-01-04 03:25:00,32.6,31.6,30.37,WNW,287,1.0,1.0,96,0.00,,,0.00,Wunderground v.1.15,2013-01-04 08:25:00,
2013-01-04 03:35:00,32.7,31.7,30.36,WNW,288,1.0,1.0,96,0.00,,,0.00,Wunderground v.1.15,2013-01-04 08:35:00,
2013-01-04 03:45:00,32.8,31.8,30.37,WNW,288,0.0,0.0,96,0.00,,,0.00,Wunderground v.1.15,2013-01-04 08:45:00,
2013-01-04 03:50:00,32.8,31.8,30.37,WNW,288,0.0,0.0,96,0.00,,,0.00,Wunderground v.1.15,2013-01-04 08:50:00,
2013-01-04 04:00:00,32.9,31.9,30.36,WNW,288,0.0,0.0,96,0.00,,,0.00,Wunderground v.1.15,2013-01-04 09:00:00,
2013-01-04 04:10:00,33.1,32.1,30.36,WNW,288,0.0,0.0,96,0.00,,,0.00,Wunderground v.1.15,2013-01-04 09:10:00,
2013-01-04 04:20:00,33.1,32.1,30.36,WNW,287,0.0,0.0,96,0.00,,,0.00,Wunderground v.1.15,2013-01-04 09:20:00,
2013-01-04 04:25:00,33.1,32.3,30.37,WNW,288,0.0,0.0,97,0.00,,,0.00,Wunderground v.1.15,2013-01-04 09:25:00,
2013-01-04 04:30:00,33.2,32.4,30.36,WNW,288,0.0,0.0,97,0.00,,,0.00,Wunderground v.1.15,2013-01-04 09:30:00,
2013-01-04 04:40:00,33.2,32.4,30.36,WNW,288,0.0,0.0,97,0.00,,,0.00,Wunderground v.1.15,2013-01-04 09:40:00,
2013-01-04 04:50:00,33.2,32.4,30.37,WNW,288,0.0,0.0,97,0.00,,,0.00,Wunderground v.1.15,2013-01-04 09:50:00,
2013-01-04 04:55:00,33.1,32.3,30.37,WNW,287,0.0,0.0,97,0.00,,,0.00,Wunderground v.1.15,2013-01-04 09:55:00,
2013-01-04 05:05:00,32.9,32.1,30.37,WNW,287,0.0,0.0,97,0.00,,,0.00,Wunderground v.1.15,2013-01-04 10:05:00,
2013-01-04 05:15:00,32.7,31.9,30.37,WNW,287,0.0,0.0,97,0.00,,,0.00,Wunderground v.1.15,2013-01-04 10:15:00,
2013-01-04 05:25:00,32.6,31.8,30.38,WNW,288,0.0,1.0,97,0.00,,,0.00,Wunderground v.1.15,2013-01-04 10:25:00,
2013-01-04 05:30:00,32.7,31.9,30.38,WNW,288,0.0,0.0,97,0.00,,,0.00,Wunderground v.1.15,2013-01-04 10:30:00,
2013-01-04 05:35:00,32.8,32.0,30.38,WNW,288,0.0,0.0,97,0.00,,,0.00,Wunderground v.1.15,2013-01-04 10:35:00,
2013-01-04 05:45:00,32.8,32.0,30.38,WNW,287,0.0,0.0,97,0.00,,,0.00,Wunderground v.1.15,2013-01-04 10:45:00,
2013-01-04 05:50:00,32.7,31.9,30.38,WNW,288,0.0,0.0,97,0.00,,,0.00,Wunderground v.1.15,2013-01-04 10:50:00,
2013-01-04 06:00:00,32.6,31.8,30.39,WNW,288,0.0,0.0,97,0.00,,,0.00,Wunderground v.1.15,2013-01-04 11:00:00,
2013-01-04 06:05:00,32.5,31.7,30.38,WNW,287,0.0,0.0,97,0.00,,,0.00,Wunderground v.1.15,2013-01-04 11:05:00,
2013-01-04 06:15:00,32.3,31.5,30.37,WNW,287,0.0,0.0,97,0.00,,,0.00,Wunderground v.1.15,2013-01-04 11:15:00,
2013-01-04 06:25:00,32.0,31.2,30.38,WNW,288,0.0,0.0,97,0.00,,,0.00,Wunderground v.1.15,2013-01-04 11:25:00,
2013-01-04 06:30:00,31.9,31.1,30.39,WNW,287,0.0,0.0,97,0.00,,,0.00,Wunderground v.1.15,2013-01-04 11:30:00,
2013-01-04 06:40:00,31.6,30.8,30.39,WNW,288,0.0,0.0,97,0.00,,,0.00,Wunderground v.1.15,2013-01-04 11:40:00,
2013-01-04 06:50:00,31.4,30.6,30.39,WNW,288,0.0,0.0,97,0.00,,,0.00,Wunderground v.1.15,2013-01-04 11:50:00,
2013-01-04 06:55:00,31.3,30.5,30.39,WNW,287,0.0,0.0,97,0.00,,,0.00,Wunderground v.1.15,2013-01-04 11:55:00,
2013-01-04 07:05:00,31.1,30.3,30.39,WNW,288,0.0,0.0,97,0.00,,,0.00,Wunderground v.1.15,2013-01-04 12:05:00,
2013-01-04 07:15:00,30.9,30.1,30.40,WNW,287,0.0,0.0,97,0.00,,,0.00,Wunderground v.1.15,2013-01-04 12:15:00,
2013-01-04 07:25:00,30.8,30.0,30.40,WNW,287,0.0,0.0,97,0.00,,,0.00,Wunderground v.1.15,2013-01-04 12:25:00,
2013-01-04 07:35:00,30.6,29.9,30.41,WNW,287,0.0,0.0,97,0.00,,,0.00,Wunderground v.1.15,2013-01-04 12:35:00,
2013-01-04 07:45:00,30.5,29.8,30.41,WNW,287,0.0,0.0,97,0.00,,,0.00,Wunderground v.1.15,2013-01-04 12:45:00,
2013-01-04 07:55:00,30.4,29.7,30.41,WNW,288,0.0,0.0,97,0.00,,,0.00,Wunderground v.1.15,2013-01-04 12:55:00,
2013-01-04 08:05:00,30.5,29.8,30.41,WNW,287,0.0,0.0,97,0.00,,,0.00,Wunderground v.1.15,2013-01-04 13:05:00,
2013-01-04 08:15:00,30.9,30.1,30.42,WNW,287,0.0,0.0,97,0.00,,,0.00,Wunderground v.1.15,2013-01-04 13:15:00,
2013-01-04 08:20:00,31.3,30.5,30.42,WNW,288,1.0,1.0,97,0.00,,,0.00,Wunderground v.1.15,2013-01-04 13:20:00,
2013-01-04 08:30:00,32.3,31.5,30.42,WNW,287,0.0,0.0,97,0.00,,,0.00,Wunderground v.1.15,2013-01-04 13:30:00,
2013-01-04 08:35:00,32.9,32.1,30.42,WNW,288,0.0,1.0,97,0.00,,,0.00,Wunderground v.1.15,2013-01-04 13:35:00,
2013-01-04 08:45:00,33.4,32.6,30.42,WNW,302,2.0,2.0,97,0.00,,,0.01,Wunderground v.1.15,2013-01-04 13:45:00,
2013-01-04 08:50:00,33.5,32.7,30.42,WNW,294,2.0,2.0,97,0.00,,,0.01,Wunderground v.1.15,2013-01-04 13:50:00,
2013-01-04 09:00:00,34.4,33.6,30.42,NW,326,1.0,1.0,97,0.00,,,0.01,Wunderground v.1.15,2013-01-04 14:00:00,
2013-01-04 09:05:00,35.0,34.2,30.42,NNW,327,1.0,1.0,97,0.00,,,0.01,Wunderground v.1.15,2013-01-04 14:05:00,
2013-01-04 09:10:00,35.8,35.0,30.43,NNW,327,1.0,2.0,97,0.00,,,0.01,Wunderground v.1.15,2013-01-04 14:10:00,
2013-01-04 09:15:00,35.8,35.0,30.43,NNW,327,1.0,2.0,97,0.00,,,0.01,Wunderground v.1.15,2013-01-04 14:15:00,
2013-01-04 09:25:00,36.6,35.8,30.43,NNW,327,1.0,1.0,97,0.00,,,0.01,Wunderground v.1.15,2013-01-04 14:25:00,
2013-01-04 09:35:00,37.7,36.9,30.44,NW,310,1.0,2.0,97,0.00,,,0.01,Wunderground v.1.15,2013-01-04 14:35:00,
2013-01-04 09:40:00,37.5,36.7,30.44,WNW,296,1.0,1.0,97,0.00,,,0.01,Wunderground v.1.15,2013-01-04 14:40:00,
2013-01-04 09:50:00,38.1,37.3,30.44,WNW,295,1.0,1.0,97,0.00,,,0.01,Wunderground v.1.15,2013-01-04 14:50:00,
2013-01-04 10:00:00,39.6,38.8,30.43,North,360,2.0,2.0,97,0.00,,,0.01,Wunderground v.1.15,2013-01-04 15:00:00,
2013-01-04 10:10:00,40.5,39.7,30.44,NW,326,2.0,2.0,97,0.00,,,0.01,Wunderground v.1.15,2013-01-04 15:10:00,
2013-01-04 10:15:00,40.6,39.5,30.44,NNW,344,2.0,2.0,96,0.00,,,0.01,Wunderground v.1.15,2013-01-04 15:15:00,
2013-01-04 10:25:00,41.5,39.3,30.44,NNW,346,1.0,2.0,92,0.00,,,0.01,Wunderground v.1.15,2013-01-04 15:25:00,
2013-01-04 10:30:00,42.0,38.1,30.44,NE,55,1.0,2.0,86,0.00,,,0.01,Wunderground v.1.15,2013-01-04 15:30:00,
2013-01-04 10:40:00,43.1,36.7,30.44,North,10,2.0,2.0,78,0.00,,,0.01,Wunderground v.1.15,2013-01-04 15:40:00,
2013-01-04 10:50:00,43.8,35.7,30.44,ESE,107,1.0,1.0,73,0.00,,,0.01,Wunderground v.1.15,2013-01-04 15:50:00,
2013-01-04 11:00:00,44.4,35.9,30.44,SE,138,2.0,2.0,72,0.00,,,0.01,Wunderground v.1.15,2013-01-04 16:00:00,
2013-01-04 11:10:00,45.6,36.0,30.44,ESE,109,1.0,3.0,69,0.00,,,0.01,Wunderground v.1.15,2013-01-04 16:10:00,
2013-01-04 11:15:00,45.7,36.1,30.43,ESE,121,2.0,3.0,69,0.00,,,0.01,Wunderground v.1.15,2013-01-04 16:15:00,
2013-01-04 11:25:00,46.8,36.8,30.44,North,355,1.0,2.0,68,0.00,,,0.01,Wunderground v.1.15,2013-01-04 16:25:00,
2013-01-04 11:35:00,47.3,36.9,30.44,SSE,156,2.0,2.0,67,0.00,,,0.01,Wunderground v.1.15,2013-01-04 16:35:00,
2013-01-04 11:45:00,47.8,37.4,30.43,West,272,2.0,3.0,67,0.00,,,0.01,Wunderground v.1.15,2013-01-04 16:45:00,
2013-01-04 11:50:00,47.8,37.0,30.43,WNW,295,2.0,3.0,66,0.00,,,0.01,Wunderground v.1.15,2013-01-04 16:50:00,
2013-01-04 12:00:00,48.6,37.4,30.43,North,9,2.0,5.0,65,0.00,,,0.01,Wunderground v.1.15,2013-01-04 17:00:00,
2013-01-04 12:10:00,48.8,37.2,30.42,WNW,290,3.0,3.0,64,0.00,,,0.01,Wunderground v.1.15,2013-01-04 17:10:00,
2013-01-04 12:20:00,49.5,37.4,30.42,WNW,284,1.0,4.0,63,0.00,,,0.01,Wunderground v.1.15,2013-01-04 17:20:00,
2013-01-04 12:25:00,49.8,37.7,30.42,South,176,2.0,4.0,63,0.00,,,0.01,Wunderground v.1.15,2013-01-04 17:25:00,
2013-01-04 12:30:00,49.7,36.8,30.41,SSW,195,3.0,3.0,61,0.00,,,0.01,Wunderground v.1.15,2013-01-04 17:30:00,
2013-01-04 12:40:00,50.0,37.1,30.40,WNW,282,3.0,3.0,61,0.00,,,0.01,Wunderground v.1.15,2013-01-04 17:40:00,
2013-01-04 12:50:00,50.7,37.7,30.40,West,279,3.0,3.0,61,0.00,,,0.01,Wunderground v.1.15,2013-01-04 17:50:00,
2013-01-04 13:00:00,51.1,38.1,30.38,SSW,196,3.0,4.0,61,0.00,,,0.01,Wunderground v.1.15,2013-01-04 18:00:00,
2013-01-04 13:10:00,51.8,39.2,30.37,SW,217,3.0,6.0,62,0.00,,,0.01,Wunderground v.1.15,2013-01-04 18:10:00,
2013-01-04 13:20:00,51.6,38.6,30.36,SSE,148,3.0,3.0,61,0.00,,,0.01,Wunderground v.1.15,2013-01-04 18:20:00,
2013-01-04 13:25:00,51.1,38.5,30.36,ENE,64,2.0,3.0,62,0.00,,,0.01,Wunderground v.1.15,2013-01-04 18:25:00,
2013-01-04 13:35:00,52.6,39.1,30.36,South,169,2.0,7.0,60,0.00,,,0.01,Wunderground v.1.15,2013-01-04 18:35:00,
2013-01-04 13:45:00,53.0,39.9,30.35,West,272,4.0,4.0,61,0.00,,,0.01,Wunderground v.1.15,2013-01-04 18:45:00,
2013-01-04 13:55:00,53.4,39.9,30.35,SSE,148,4.0,4.0,60,0.00,,,0.01,Wunderground v.1.15,2013-01-04 18:55:00,
2013-01-04 14:00:00,53.9,39.5,30.35,SSE,165,3.0,4.0,58,0.00,,,0.01,Wunderground v.1.15,2013-01-04 19:00:00,
2013-01-04 14:05:00,54.2,40.2,30.35,SW,228,2.0,4.0,59,0.00,,,0.01,Wunderground v.1.15,2013-01-04 19:05:00,
2013-01-04 14:15:00,54.8,38.9,30.34,NNW,343,3.0,5.0,55,0.00,,,0.01,Wunderground v.1.15,2013-01-04 19:15:00,
2013-01-04 14:20:00,54.7,39.8,30.34,WNW,294,3.0,4.0,57,0.00,,,0.01,Wunderground v.1.15,2013-01-04 19:20:00,
2013-01-04 14:30:00,54.8,39.8,30.33,West,266,3.0,3.0,57,0.00,,,0.01,Wunderground v.1.15,2013-01-04 19:30:00,
2013-01-04 14:35:00,55.0,38.6,30.33,NW,317,2.0,3.0,54,0.00,,,0.01,Wunderground v.1.15,2013-01-04 19:35:00,
2013-01-04 14:45:00,55.7,38.8,30.33,SW,231,2.0,4.0,53,0.00,,,0.01,Wunderground v.1.15,2013-01-04 19:45:00,
2013-01-04 14:50:00,55.4,39.0,30.33,SSE,166,3.0,5.0,54,0.00,,,0.01,Wunderground v.1.15,2013-01-04 19:50:00,
2013-01-04 14:55:00,55.2,38.4,30.33,WNW,291,3.0,5.0,53,0.00,,,0.01,Wunderground v.1.15,2013-01-04 19:55:00,
2013-01-04 15:00:00,54.9,37.6,30.33,West,263,3.0,5.0,52,0.00,,,0.01,Wunderground v.1.15,2013-01-04 20:00:00,
2013-01-04 15:10:00,54.8,37.0,30.33,SSW,208,3.0,3.0,51,0.00,,,0.01,Wunderground v.1.15,2013-01-04 20:10:00,
2013-01-04 15:15:00,55.0,37.2,30.33,SW,215,3.0,3.0,51,0.00,,,0.01,Wunderground v.1.15,2013-01-04 20:15:00,
2013-01-04 15:25:00,55.0,35.7,30.34,NNW,334,4.0,5.0,48,0.00,,,0.01,Wunderground v.1.15,2013-01-04 20:25:00,
2013-01-04 15:30:00,54.8,36.0,30.34,WSW,245,4.0,9.0,49,0.00,,,0.01,Wunderground v.1.15,2013-01-04 20:30:00,
2013-01-04 15:40:00,55.2,37.9,30.34,West,281,3.0,3.0,52,0.00,,,0.01,Wunderground v.1.15,2013-01-04 20:40:00,
2013-01-04 15:50:00,55.4,36.5,30.34,WNW,298,3.0,9.0,49,0.00,,,0.01,Wunderground v.1.15,2013-01-04 20:50:00,
2013-01-04 16:00:00,54.6,34.8,30.34,West,275,4.0,4.0,47,0.00,,,0.01,Wunderground v.1.15,2013-01-04 21:00:00,
2013-01-04 16:10:00,53.9,34.1,30.34,West,259,4.0,4.0,47,0.00,,,0.01,Wunderground v.1.15,2013-01-04 21:10:00,
2013-01-04 16:25:00,53.5,34.8,30.35,WNW,284,2.0,2.0,49,0.00,,,0.01,Wunderground v.1.15,2013-01-04 21:25:00,
2013-01-04 16:30:00,53.2,34.5,30.34,WNW,295,3.0,3.0,49,0.00,,,0.01,Wunderground v.1.15,2013-01-04 21:30:00,
2013-01-04 16:40:00,53.0,34.8,30.34,West,272,2.0,2.0,50,0.00,,,0.01,Wunderground v.1.15,2013-01-04 21:40:00,
2013-01-04 16:55:00,52.4,35.3,30.34,West,271,1.0,1.0,52,0.00,,,0.01,Wunderground v.1.15,2013-01-04 21:55:00,
2013-01-04 17:05:00,51.7,36.0,30.34,WSW,243,0.0,0.0,55,0.00,,,0.01,Wunderground v.1.15,2013-01-04 22:05:00,
2013-01-04 17:10:00,51.2,36.0,30.34,WSW,243,1.0,1.0,56,0.00,,,0.01,Wunderground v.1.15,2013-01-04 22:10:00,
2013-01-04 17:20:00,50.1,37.2,30.35,WSW,243,1.0,1.0,61,0.00,,,0.01,Wunderground v.1.15,2013-01-04 22:20:00,
2013-01-04 17:25:00,49.5,35.8,30.35,WSW,242,1.0,1.0,59,0.00,,,0.01,Wunderground v.1.15,2013-01-04 22:25:00,
2013-01-04 17:40:00,47.3,37.6,30.35,WSW,243,0.0,0.0,69,0.00,,,0.01,Wunderground v.1.15,2013-01-04 22:40:00,
2013-01-04 17:45:00,46.4,36.8,30.35,WSW,243,0.0,0.0,69,0.00,,,0.01,Wunderground v.1.15,2013-01-04 22:45:00,
2013-01-04 17:55:00,44.9,36.8,30.36,WSW,243,0.0,0.0,73,0.00,,,0.01,Wunderground v.1.15,2013-01-04 22:55:00,
2013-01-04 18:00:00,44.1,36.3,30.36,WSW,243,0.0,0.0,74,0.00,,,0.01,Wunderground v.1.15,2013-01-04 23:00:00,
2013-01-04 18:10:00,42.8,35.8,30.36,WSW,242,0.0,0.0,76,0.00,,,0.01,Wunderground v.1.15,2013-01-04 23:10:00,
2013-01-04 18:15:00,42.2,35.5,30.36,WSW,242,0.0,0.0,77,0.00,,,0.01,Wunderground v.1.15,2013-01-04 23:15:00,
2013-01-04 18:25:00,41.3,35.0,30.36,WSW,242,0.0,1.0,78,0.00,,,0.01,Wunderground v.1.15,2013-01-04 23:25:00,
2013-01-04 18:35:00,40.6,34.6,30.37,WSW,243,1.0,1.0,79,0.00,,,0.01,Wunderground v.1.15,2013-01-04 23:35:00,
2013-01-04 18:45:00,40.0,34.6,30.37,WSW,243,0.0,0.0,81,0.00,,,0.01,Wunderground v.1.15,2013-01-04 23:45:00,
2013-01-04 18:50:00,39.4,34.4,30.37,WSW,243,0.0,0.0,82,0.00,,,0.01,Wunderground v.1.15,2013-01-04 23:50:00,
2013-01-04 19:00:00,38.7,34.0,30.38,WSW,242,0.0,0.0,83,0.00,,,0.01,Wunderground v.1.15,2013-01-05 00:00:00,
2013-01-04 19:05:00,38.3,33.9,30.38,SSW,213,0.0,3.0,84,0.00,,,0.01,Wunderground v.1.15,2013-01-05 00:05:00,
2013-01-04 19:15:00,38.9,31.3,30.38,WNW,282,1.0,2.0,74,0.00,,,0.01,Wunderground v.1.15,2013-01-05 00:15:00,
2013-01-04 19:25:00,40.4,30.3,30.39,WSW,253,1.0,1.0,67,0.00,,,0.01,Wunderground v.1.15,2013-01-05 00:25:00,
2013-01-04 19:35:00,40.9,31.9,30.39,WSW,252,0.0,1.0,70,0.00,,,0.01,Wunderground v.1.15,2013-01-05 00:35:00,
2013-01-04 19:40:00,40.5,31.1,30.39,WSW,252,1.0,1.0,69,0.00,,,0.01,Wunderground v.1.15,2013-01-05 00:40:00,
2013-01-04 19:50:00,39.8,29.7,30.39,West,281,0.0,2.0,67,0.00,,,0.01,Wunderground v.1.15,2013-01-05 00:50:00,
2013-01-04 19:55:00,39.6,28.8,30.39,West,264,0.0,2.0,65,0.00,,,0.01,Wunderground v.1.15,2013-01-05 00:55:00,
2013-01-04 20:00:00,39.5,28.3,30.40,WNW,296,0.0,2.0,64,0.00,,,0.01,Wunderground v.1.15,2013-01-05 01:00:00,
2013-01-04 20:10:00,39.4,30.1,30.40,SW,234,1.0,1.0,69,0.00,,,0.01,Wunderground v.1.15,2013-01-05 01:10:00,
2013-01-04 20:15:00,39.7,28.1,30.40,West,259,1.0,1.0,63,0.00,,,0.01,Wunderground v.1.15,2013-01-05 01:15:00,
2013-01-04 20:25:00,40.7,27.1,30.39,West,263,1.0,3.0,58,0.00,,,0.01,Wunderground v.1.15,2013-01-05 01:25:00,
2013-01-04 20:35:00,40.5,26.9,30.40,West,264,1.0,1.0,58,0.00,,,0.01,Wunderground v.1.15,2013-01-05 01:35:00,
2013-01-04 20:40:00,40.0,27.2,30.39,SW,221,1.0,1.0,60,0.00,,,0.01,Wunderground v.1.15,2013-01-05 01:40:00,
2013-01-04 20:45:00,39.6,26.8,30.39,NNW,329,1.0,1.0,60,0.00,,,0.01,Wunderground v.1.15,2013-01-05 01:45:00,
2013-01-04 20:55:00,39.7,26.5,30.39,NNW,331,2.0,2.0,59,0.00,,,0.01,Wunderground v.1.15,2013-01-05 01:55:00,
2013-01-04 21:00:00,39.7,26.1,30.40,WNW,300,2.0,2.0,58,0.00,,,0.01,Wunderground v.1.15,2013-01-05 02:00:00,
2013-01-04 21:10:00,40.0,26.0,30.40,WSW,255,2.0,2.0,57,0.00,,,0.01,Wunderground v.1.15,2013-01-05 02:10:00,
2013-01-04 21:15:00,40.0,25.1,30.40,West,259,2.0,2.0,55,0.00,,,0.01,Wunderground v.1.15,2013-01-05 02:15:00,
2013-01-04 21:25:00,40.0,25.1,30.40,West,271,1.0,2.0,55,0.00,,,0.01,Wunderground v.1.15,2013-01-05 02:25:00,
2013-01-04 21:35:00,39.9,24.6,30.40,WSW,250,1.0,1.0,54,0.00,,,0.01,Wunderground v.1.15,2013-01-05 02:35:00,
2013-01-04 21:40:00,39.6,24.7,30.40,WSW,249,0.0,0.0,55,0.00,,,0.01,Wunderground v.1.15,2013-01-05 02:40:00,
2013-01-04 21:45:00,39.3,24.9,30.41,WSW,250,1.0,1.0,56,0.00,,,0.01,Wunderground v.1.15,2013-01-05 02:45:00,
2013-01-04 21:55:00,38.2,24.7,30.41,North,350,0.0,1.0,58,0.00,,,0.01,Wunderground v.1.15,2013-01-05 02:55:00,
2013-01-04 22:05:00,36.8,24.6,30.41,WNW,297,1.0,2.0,61,0.00,,,0.01,Wunderground v.1.15,2013-01-05 03:05:00,
2013-01-04 22:15:00,36.3,26.0,30.41,WNW,298,1.0,3.0,66,0.00,,,0.01,Wunderground v.1.15,2013-01-05 03:15:00,
2013-01-04 22:25:00,35.5,24.9,30.41,WNW,300,1.0,2.0,65,0.00,,,0.01,Wunderground v.1.15,2013-01-05 03:25:00,
2013-01-04 22:30:00,35.5,24.9,30.41,WNW,301,1.0,1.0,65,0.00,,,0.01,Wunderground v.1.15,2013-01-05 03:30:00,
2013-01-04 22:40:00,36.3,25.7,30.41,NW,325,2.0,2.0,65,0.00,,,0.01,Wunderground v.1.15,2013-01-05 03:40:00,
2013-01-04 22:50:00,35.5,24.9,30.42,NW,306,1.0,1.0,65,0.00,,,0.01,Wunderground v.1.15,2013-01-05 03:50:00,
2013-01-04 22:55:00,35.3,24.7,30.41,NW,305,1.0,1.0,65,0.00,,,0.01,Wunderground v.1.15,2013-01-05 03:55:00,
2013-01-04 23:00:00,35.0,24.8,30.42,North,350,1.0,1.0,66,0.00,,,0.01,Wunderground v.1.15,2013-01-05 04:00:00,
2013-01-04 23:10:00,34.1,25.0,30.42,North,351,0.0,2.0,69,0.00,,,0.01,Wunderground v.1.15,2013-01-05 04:10:00,
2013-01-04 23:20:00,32.8,25.4,30.42,North,351,1.0,1.0,74,0.00,,,0.01,Wunderground v.1.15,2013-01-05 04:20:00,
2013-01-04 23:25:00,32.4,25.4,30.42,North,350,0.0,1.0,75,0.00,,,0.01,Wunderground v.1.15,2013-01-05 04:25:00,
2013-01-04 23:35:00,31.9,24.9,30.42,North,351,0.0,0.0,75,0.00,,,0.01,Wunderground v.1.15,2013-01-05 04:35:00,
2013-01-04 23:45:00,31.4,25.0,30.42,NNW,342,0.0,2.0,77,0.00,,,0.01,Wunderground v.1.15,2013-01-05 04:45:00,
2013-01-04 23:55:00,31.5,24.8,30.42,North,355,2.0,2.0,76,0.00,,,0.01,Wunderground v.1.15,2013-01-05 04:55:00,